[keps] orb09136.amsat

Ray Hoad r.hoad at att.net
Sat May 16 15:50:46 PDT 2009


SB KEPS @ AMSAT  $ORB09136.O
Orbital Elements  09136.OSCAR

HR AMSAT ORBITAL ELEMENTS FOR OSCAR SATELLITES
FROM WA5QGD FORT WORTH,TX May 16, 2009
Send Subscribe/unsubscribe to KEPS at 
http://www.amsat.org/mailman/listinfo/keps
BID: ORB09136.O
TO ALL RADIO AMATEURS BT

Satellite: SO-33
Catalog number: 25509
Epoch time:      09136.39314056
Element set:     454
Inclination:      031.4317 deg
RA of node:       232.2658 deg
Eccentricity:    0.0353968
Arg of perigee:   060.5234 deg
Mean anomaly:     303.0224 deg
Mean motion:   14.28252157 rev/day
Decay rate:       1.37e-06 rev/day^2
Epoch rev:           55128
Checksum:              284

Satellite: RS-22
Catalog number: 27939
Epoch time:      09135.85538180
Element set:     790
Inclination:      097.9499 deg
RA of node:       011.8945 deg
Eccentricity:    0.0012686
Arg of perigee:   232.0309 deg
Mean anomaly:     127.9753 deg
Mean motion:   14.63315793 rev/day
Decay rate:       1.13e-06 rev/day^2
Epoch rev:           30084
Checksum:              329

Satellite: AO-07
Catalog number: 07530
Epoch time:      09135.84696799
Element set:    0479
Inclination:      101.4276 deg
RA of node:       161.7091 deg
Eccentricity:    0.0011701
Arg of perigee:   333.5230 deg
Mean anomaly:     026.5236 deg
Mean motion:   12.53575707 rev/day
Decay rate:       -2.7e-07 rev/day^2
Epoch rev:           57866
Checksum:              312

Satellite: FO-29
Catalog number: 24278
Epoch time:      09135.83444780
Element set:      41
Inclination:      098.5587 deg
RA of node:       014.2142 deg
Eccentricity:    0.0351363
Arg of perigee:   074.2768 deg
Mean anomaly:     289.6831 deg
Mean motion:   13.52943796 rev/day
Decay rate:        3.3e-07 rev/day^2
Epoch rev:           62937
Checksum:              336

Satellite: VO-52
Catalog number: 28650
Epoch time:      09135.76704626
Element set:     225
Inclination:      097.7432 deg
RA of node:       198.4170 deg
Eccentricity:    0.0028102
Arg of perigee:   133.6828 deg
Mean anomaly:     226.7051 deg
Mean motion:   14.81582348 rev/day
Decay rate:      -2.67e-06 rev/day^2
Epoch rev:           21784
Checksum:              314

/EX
SB KEPS @ AMSAT  $ORB09136.D
Orbital Elements  09136.MICROS

HR AMSAT ORBITAL ELEMENTS FOR THE MICROSATS
FROM WA5QGD FORT WORTH,TX May 16, 2009
Send Subscribe/unsubscribe to KEPS at 
http://www.amsat.org/mailman/listinfo/keps
BID: ORB09136.D
TO ALL RADIO AMATEURS BT

Satellite: CO-65
Catalog number: 32785
Epoch time:      09136.31327094
Element set:     366
Inclination:      097.9468 deg
RA of node:       200.5395 deg
Eccentricity:    0.0015864
Arg of perigee:   131.6896 deg
Mean anomaly:     228.5673 deg
Mean motion:   14.81480168 rev/day
Decay rate:       1.17e-06 rev/day^2
Epoch rev:            5672
Checksum:              337

Satellite: CP3
Catalog number: 31129
Epoch time:      09136.13155733
Element set:     931
Inclination:      097.9937 deg
RA of node:       190.7408 deg
Eccentricity:    0.0102983
Arg of perigee:   025.3189 deg
Mean anomaly:     335.3016 deg
Mean motion:   14.52129925 rev/day
Decay rate:        9.8e-07 rev/day^2
Epoch rev:           11023
Checksum:              298

Satellite: AO-51
Catalog number: 28375
Epoch time:      09136.08487887
Element set:     389
Inclination:      098.0537 deg
RA of node:       147.5612 deg
Eccentricity:    0.0082803
Arg of perigee:   222.5325 deg
Mean anomaly:     136.9433 deg
Mean motion:   14.40641446 rev/day
Decay rate:        6.0e-08 rev/day^2
Epoch rev:           25633
Checksum:              320

Satellite: GENESAT1
Catalog number: 29655
Epoch time:      09135.96626874
Element set:    0711
Inclination:      040.0254 deg
RA of node:       025.1170 deg
Eccentricity:    0.0002549
Arg of perigee:   269.7020 deg
Mean anomaly:     090.3505 deg
Mean motion:   15.64950256 rev/day
Decay rate:     1.2027e-04 rev/day^2
Epoch rev:           13742
Checksum:              281

Satellite: KKS-1
Catalog number: 33493
Epoch time:      09135.93214423
Element set:    0385
Inclination:      098.0545 deg
RA of node:       248.0055 deg
Eccentricity:    0.0019965
Arg of perigee:   350.0146 deg
Mean anomaly:     010.0664 deg
Mean motion:   14.80664741 rev/day
Decay rate:       2.87e-06 rev/day^2
Epoch rev:           01669
Checksum:              296

Satellite: AO-16
Catalog number: 20439
Epoch time:      09135.91887775
Element set:    0606
Inclination:      098.2761 deg
RA of node:       105.7939 deg
Eccentricity:    0.0009964
Arg of perigee:   268.3414 deg
Mean anomaly:     091.6627 deg
Mean motion:   14.31823561 rev/day
Decay rate:       -1.2e-07 rev/day^2
Epoch rev:           00853
Checksum:              326

Satellite: LO-19
Catalog number: 20442
Epoch time:      09135.91126962
Element set:    0526
Inclination:      098.2396 deg
RA of node:       113.1748 deg
Eccentricity:    0.0010912
Arg of perigee:   263.7981 deg
Mean anomaly:     096.1960 deg
Mean motion:   14.32059269 rev/day
Decay rate:       -5.9e-07 rev/day^2
Epoch rev:           00869
Checksum:              321

Satellite: CO-56
Catalog number: 28941
Epoch time:      09135.90902426
Element set:    0080
Inclination:      098.1365 deg
RA of node:       304.3868 deg
Eccentricity:    0.0094280
Arg of perigee:   253.4433 deg
Mean anomaly:     105.6539 deg
Mean motion:   15.80682491 rev/day
Decay rate:     5.0302e-04 rev/day^2
Epoch rev:           18214
Checksum:              311

Satellite: SOHLA-1
Catalog number: 33496
Epoch time:      09135.90571186
Element set:    0347
Inclination:      098.0356 deg
RA of node:       245.7222 deg
Eccentricity:    0.0007493
Arg of perigee:   034.1945 deg
Mean anomaly:     325.9733 deg
Mean motion:   14.69432989 rev/day
Decay rate:        3.5e-07 rev/day^2
Epoch rev:           01653
Checksum:              320

Satellite: AO-27
Catalog number: 22825
Epoch time:      09135.87283545
Element set:    0243
Inclination:      098.4360 deg
RA of node:       090.3194 deg
Eccentricity:    0.0008465
Arg of perigee:   007.8447 deg
Mean anomaly:     352.2855 deg
Mean motion:   14.29265654 rev/day
Decay rate:       1.11e-06 rev/day^2
Epoch rev:           81529
Checksum:              318

Satellite: GO-32
Catalog number: 25397
Epoch time:      09135.73167847
Element set:     893
Inclination:      098.3273 deg
RA of node:       159.8087 deg
Eccentricity:    0.0001343
Arg of perigee:   035.8861 deg
Mean anomaly:     324.2401 deg
Mean motion:   14.23159124 rev/day
Decay rate:        9.6e-07 rev/day^2
Epoch rev:           56351
Checksum:              318

Satellite: CO-55
Catalog number: 27844
Epoch time:      09135.59410616
Element set:    0579
Inclination:      098.7128 deg
RA of node:       145.2216 deg
Eccentricity:    0.0008929
Arg of perigee:   236.3627 deg
Mean anomaly:     123.6691 deg
Mean motion:   14.20636842 rev/day
Decay rate:        3.3e-07 rev/day^2
Epoch rev:           30463
Checksum:              316

Satellite: IO-26
Catalog number: 22826
Epoch time:      09135.58874992
Element set:    0970
Inclination:      098.4271 deg
RA of node:       090.8054 deg
Eccentricity:    0.0009087
Arg of perigee:   002.9005 deg
Mean anomaly:     357.2228 deg
Mean motion:   14.29516772 rev/day
Decay rate:       -9.0e-08 rev/day^2
Epoch rev:           81535
Checksum:              328

Satellite: NO-44
Catalog number: 26931
Epoch time:      09135.54192557
Element set:    0169
Inclination:      067.0501 deg
RA of node:       148.4470 deg
Eccentricity:    0.0005407
Arg of perigee:   269.7031 deg
Mean anomaly:     090.3459 deg
Mean motion:   14.29556749 rev/day
Decay rate:       1.44e-06 rev/day^2
Epoch rev:           39791
Checksum:              322

Satellite: SO-50
Catalog number: 27607
Epoch time:      09135.49711827
Element set:     885
Inclination:      064.5568 deg
RA of node:       124.3731 deg
Eccentricity:    0.0070947
Arg of perigee:   213.0285 deg
Mean anomaly:     146.6359 deg
Mean motion:   14.71435057 rev/day
Decay rate:       -1.6e-07 rev/day^2
Epoch rev:           34386
Checksum:              322

Satellite: CO-57
Catalog number: 27848
Epoch time:      09135.49665576
Element set:    0526
Inclination:      098.7144 deg
RA of node:       144.1854 deg
Eccentricity:    0.0008885
Arg of perigee:   241.5858 deg
Mean anomaly:     118.4433 deg
Mean motion:   14.20438960 rev/day
Decay rate:        2.3e-07 rev/day^2
Epoch rev:           30458
Checksum:              339

/EX
SB KEPS @ AMSAT  $ORB09136.W
Orbital Elements  09136.WEATHER

HR AMSAT ORBITAL ELEMENTS FOR WEATHER SATELLITES
FROM WA5QGD FORT WORTH,TX May 16, 2009
Send Subscribe/unsubscribe to KEPS at 
http://www.amsat.org/mailman/listinfo/keps
BID: ORB09136.W
TO ALL RADIO AMATEURS BT

Satellite: NOAA-18
Catalog number: 28654
Epoch time:      09136.56842687
Element set:     900
Inclination:      098.9061 deg
RA of node:       080.0551 deg
Eccentricity:    0.0015401
Arg of perigee:   091.9993 deg
Mean anomaly:     268.2937 deg
Mean motion:   14.11255677 rev/day
Decay rate:      -1.51e-06 rev/day^2
Epoch rev:           20549
Checksum:              325

Satellite: RESURS
Catalog number: 25394
Epoch time:      09136.54503361
Element set:     213
Inclination:      098.3409 deg
RA of node:       170.4990 deg
Eccentricity:    0.0001324
Arg of perigee:   348.5256 deg
Mean anomaly:     011.5896 deg
Mean motion:   14.24182680 rev/day
Decay rate:        2.0e-08 rev/day^2
Epoch rev:           56389
Checksum:              291

Satellite: NOAA-19
Catalog number: 33591
Epoch time:      09136.54160471
Element set:     105
Inclination:      098.7456 deg
RA of node:       083.1292 deg
Eccentricity:    0.0013679
Arg of perigee:   337.2551 deg
Mean anomaly:     022.7986 deg
Mean motion:   14.10958800 rev/day
Decay rate:       3.57e-06 rev/day^2
Epoch rev:            1397
Checksum:              315

